Location: Fort Worth, Tx
(32.7431°N, 97.3695°W)
Time: 11:03:25
(UTC-04:00)

Tiros 1 - Pass Details

Date: 28 February 2024
Orbit: 625 x 657 km, 48.4° (Epoch: 24 April)

Event Time Altitude Azimuth Distance (km) Brightness Sun altitude
Rises 21:20:54 0° 258° (WSW) 2,961 11.7 -25.0°
Reaches altitude 10° 21:23:28 10° 269° (W) 2,056 10.7 -25.5°
Maximum altitude 21:27:40 30° 331° (NNW) 1,163 8.7 -26.4°
Enters shadow 21:28:53 27° 359° (N) 1,267 8.7 -26.6°
